Find Starlink 3529

NORAD ID: 51724 Int'l Des: 2022-016 Owner: SPXS Country: US Constellation: starlink operational
LEOCIRCULAR

当前视图

正在加载3D地球...

About Starlink 3529

Starlink 3529 (NORAD 51724) is a starlink constellation satellite (v1.5) launched Feb 21, 2022 by SPXS of US. It operates in LEO, CIRCULAR orbit with a mass of 297.00 kg.

关于 Starlink 3529

正在加载描述...

即将过境

Passes for default location (London). Set your location on the main map for personalized predictions.

高度历史

Loading altitude history...

两行轨道根数

1 51724U 22016L 26160.58138557 .00000400 00000-0 43230-4 0 9997
2 51724 53.1662 276.5522 0000906 86.1310 273.9785 15.08834338237294
Epoch: Jun 9, 2026 • Age: 17 hours

当前状态

高度 554.3 km
速度 7.58 km/s
星下点 -42.11°S, 135.52°W
发射日期 Feb 21, 2022
运行时间 4.2 years
类型 internet

技术详情

分类 Payload
质量 297.00 kg
干质量 275.00 kg
总质量 297.00 kg
长度 0.20 m
直径 2.80 m
跨度 9.00 m
形状 Box + pan
制造商 SPXS
平台类型 Starlink
阶段状态 In Orbit
所有者/国家 SPXS/US

Most Searched